Showing default

SIT-2086, 61764

Orbit data source: Space-Track

SIT-2086, 61764 is a Commonwealth of Independent States-origin payload satellite in SSO that was launched on Mon, 04 Nov 2024 UTC via a SOYUZ-2-1B launch vehicle from the Vostochny Cosmodrome (VOSTO). Payload-class satellites include a variety of spacecraft equipped with specific instruments for various scientific and technological missions. These include communications satellites like Starlink; space stations such as the ISS; scientific satellites like the Hubble; Earth observation satellites from companies like Planet Labs, Umbra, and HawkEye 360; GPS; miniature CubeSats for education and research; and military/defense satellites.

Loading next visibility...
Identifier
61764, 2024-199AF
Orbit
SSO
Country
Flag of CISCIS
Related business
Manufacturer
Sputniks
Mission
Operational Amateur Technology
Bus & Motor
CUBESAT 3U, Unknown motor
Mass
3 kg wet, 3 kg dry
Launch date (UTC)
2024-11-04 (1 year ago)
Launch vehicle
SOYUZ-2-1B
Launch site
Vostochny Cosmodrome (VOSTO)
Object type
Payload
Rocket body
Debris
Shape & HBR
Box, 0.1 m
Radar Cross Section
0.035 m², Small (<0.1 m²)

Expand to show TLE details & history
Last TLE update: 11 hours ago

TLE from 11 hours ago
0 SIT-2086
1 61764U 24199AF  25312.87239205  .00027536  00000-0  67166-3 0  9990
2 61764  97.3259 182.0369 0008237   5.9537 354.1806 15.40815128100372
Epoch: 2025-11-08T20:56Z
TLE epoch observation values (Epoch: 2025-11-08T20:56:14.673Z)
Latitude
-0°
Longitude
179.67999°
Altitude
441.232 km
Speed
7.65 km/s
True Right ascension
12h 08m 08s
True Declination
0° 00' 00"
Sunlit
Object was in daylight at epoch
Visualization orbit readout
Latitude
Unknown
Longitude
Unknown
Altitude
Unknown
Speed
Unknown
Apparent Right ascension
Unknown
Apparent Declination
Unknown
Sunlit
N/A
Visualization observer readout
Local Sidereal Time
04:11:52
Azimuth
Unknown
Elevation
Unknown
Doppler factor
Unknown
Orbital elements
Apogee altitude
446.254 km
Perigee altitude
435.02 km
Semi-major axis
6,818.774 km
Eccentricity
0.00082
Inclination
97.3259°
RAAN
182.0369°
Arg. of periapsis
5.9537°
True anomaly
354.17102°
Mean anomaly
354.1806°
Eccentric anomaly
354.17581°
Mean motion
3.85464 °/min
Orbital period
93.39 mins
BSTAR
0.00067166
Loading maneuver chart data...
Computing Atmospheric mass density...
Loading historical data...
Loading historical data...
Loading historical data...
Loading historical data...
Loading historical data...
Loading historical data...
Loading historical data...

Documentation

Showing up to 5 results
|